Regional Weather Roundup
Issued by NWS

Home | Current Version | Previous Version | Text Only | Print | Product List | Glossary Off
Versions: 1 2 3 4 5 6 7 8 9 10 11 12 13 14 15 16 17 18 19 20 21 22 23 24 25 26 27 28 29 30 31 32 33 34 35 36 37 38 39 40 41 42 43 44 45 46 47 48 49 50

138
ASUS45 KSLC 082010
RWRUT

UTAH REGIONAL WEATHER ROUNDUP
NATIONAL WEATHER SERVICE SALT LAKE CITY UT
100 PM MST THU DEC 08 2016

UTZ001>011-023>025-082100-

NORTHERN UTAH

CITY           SKY/WX    TMP DP  RH WIND       PRES   REMARKS
HILL AFB       PTSUNNY   24   7  50 E9        30.20F WCI  14
LOGAN          CLOUDY    20  11  68 NW5       30.23F WCI  13
OGDEN          CLOUDY    27   9  46 N5        30.21F WCI  22
SALT LAKE CITY CLOUDY    30   9  41 SE9       30.20F WCI  22
WENDOVER       CLOUDY    21  16  79 E5        30.21F WCI  15

$$

UTZ011>015-024>027-082100-

CENTRAL/NORTHEAST UTAH

CITY           SKY/WX    TMP DP  RH WIND       PRES   REMARKS
PROVO AIRPORT  FLURRIES  27  13  55 E3        30.21F
MOAB/CANYONLAN CLOUDY    32   3  29 NE5       30.29F WCI  27
PRICE          CLOUDY    25  -4  28 SE7       30.24F WCI  17
RICHFIELD      PTSUNNY   32  10  40 N5        30.19F WCI  27
ROOSEVELT      CLOUDY    23   3  42 CALM      30.30F
VERNAL         CLOUDY    23   4  44 VRB6      30.27F WCI  16

$$

UTZ013>016-019>022-027-082100-

SOUTHERN UTAH

CITY           SKY/WX    TMP DP  RH WIND       PRES   REMARKS
BRYCE CANYON   PTSUNNY   28   6  39 VRB5      30.22S WCI  23
CEDAR CITY     CLOUDY    37  14  38 N5        30.17F WCI  33
MILFORD        CLOUDY    36   8  31 S26G32    30.16F WCI  24
ST GEORGE      MOCLDY    43  16  33 CALM      30.28F
KANAB          MOSUNNY   45  12  26 SE5       30.28F

$$

REGIONAL REPORTS     COLORADO/ARIZONA

CITY           SKY/WX    TMP DP  RH WIND       PRES   REMARKS
CRAIG, CO      CLOUDY    18   3  52 NE9       30.23F WCI   7
GRAND JUNCTION CLOUDY    28   6  39 VRB5      30.31F WCI  23
RIFLE, CO      CLOUDY    22   4  46 E3        30.28F
MONTROSE, CO   CLOUDY    27   6  41 CALM      30.30F
CORTEZ, CO     CLOUDY    37   9  31 SW9       30.28F WCI  30
PAGE, AZ       SUNNY     39   2  21 NE6       30.27F WCI  35
GRAND CANYON   SUNNY     44  21  40 VRB7      30.25F
KINGMAN, AZ    MOSUNNY   55  17  22 S6        30.23F
FLAGSTAFF, AZ  NOT AVBL

$$

REGIONAL REPORTS    NEVADA/IDAHO/WYOMING

CITY           SKY/WX    TMP DP  RH WIND       PRES   REMARKS
LAS VEGAS, NV  NOT AVBL
ELY, NY        CLOUDY    37  13  37 SW7       30.12F WCI  32
ELKO, NV       LGT SNOW  25  20  81 NE7       30.08F WCI  17
POCATELLO, ID  CLOUDY    16   8  71 NE7       30.21F WCI   6
BURLEY, ID     LGT SNOW  17  13  84 E14       30.15F VSB 3/4 WCI   3
EVANSTON, WY   LGT SNOW  10  -1  61 E12       30.12F WCI  -5
ROCK SPRINGS,  CLOUDY     7   0  73 CALM      30.17F

$$




USA.gov is the U.S. government's official web portal to all federal, state and local government web resources and services.